OneWeb SL0511

operational
NORAD ID: 54129 Int'l Des: 2022-138 Owner: ONEWEBN Country: UK Constellation: oneweb
LEOCIRCULARPOLARONEWEB_TYPE

Über OneWeb SL0511

Beschreibung wird geladen...

Live-Position

3D-Globus wird geladen...

Nächste Überflüge

Höhenverlauf

Altitude vs Time

uPlot chart will show altitude changes over time

Zweizeiliger Elementsatz

1 54129U 22138S 26095.15302155 .00000101 00000-0 22081-3 0 9999
2 54129 87.9193 319.5253 0001740 94.9015 265.2317 13.19725373167201
Epoch: 5. Apr. 2026 • Age: 12 hours

Aktueller Status

Höhe 1188.4 km
Geschwindigkeit 7.26 km/s
Subsatellitenpunkt 1.42°N, 73.06°E
Startdatum 22. Okt. 2022
Alter 3.4 years
Typ internet

Technische Details

Klassifizierung Payload
Masse 148.00 kg
Trockenmasse 140.00 kg
Gesamtmasse 148.00 kg
Länge 1.30 m
Durchmesser 1.00 m
Spannweite 5.00 m
Form Trapezoid+2 pan
Hersteller ONEWUS
Bus-Typ ARROW
Phasenstatus In Orbit
Besitzer/Staat ONEWEBN/UK

Große Konstellationen

Loading constellations...